Location: Krakow
(50.0830°N, 19.9170°E)
Time: 14:23:26
(UTC+02:00)

Tiros 1 - Pass Details

Date: 03 February 2023
Orbit: 627 x 662 km, 48.4° (Epoch: 01 April)

Event Time Altitude Azimuth Distance (km) Brightness Sun altitude
Exits shadow 05:06:51 39° 229° (SW) 966 7.7 -20.2°
Maximum altitude 05:07:34 42° 204° (SSW) 918 7.7 -20.1°
Drops below altitude 10° 05:12:01 10° 134° (SE) 2,044 10.4 -19.4°
Sets 05:14:26 0° 127° (SE) 2,959 11.5 -19.0°
